Regional Weather Roundup
Issued by NWS Charleston, SC

Current Version | Previous Version | Graphics & Text | Print | Product List | Glossary On
Versions: 1 2 3 4 5 6 7 8 9 10 11 12 13 14 15 16 17 18 19 20 21 22 23 24 25 26 27 28 29 30 31 32 33 34 35 36 37 38 39 40 41 42 43 44 45 46 47 48 49 50
000
ASUS42 KCHS 192212
RWRCHS

REGIONAL WEATHER ROUNDUP
NATIONAL WEATHER SERVICE CHARLESTON SC
500 PM EST SUN FEB 19 2017

NOTE: "FAIR" INDICATES FEW OR NO CLOUDS BELOW 12,000 FEET WITH NO
SIGNIFICANT WEATHER AND/OR OBSTRUCTIONS TO VISIBILITY.

NOT ALL STATIONS ARE QUALITY CONTROLLED. USE DATA WITH CAUTION...
ESPECIALLY DEWPOINT OBSERVATIONS.

SCZ027-030-031-034>040-042>050-192300-
...SOUTHEAST SOUTH CAROLINA...

CITY           SKY/WX    TMP DP  RH WIND       PRES   REMARKS
N CHARLESTON   SUNNY     73  46  38 N15       29.99S
WATERFRONT PRK   N/A     74  50  42 NW9       29.97R
MOUNT PLEASANT FAIR      72  50  46 N8        29.99S
JOHNS ISLAND   FAIR      75  50  41 W12       29.99S
PINOPOLIS        N/A     64  54  68 NW7       29.91S
MONCKS CORNER  FAIR      70  45  40 N5        29.99F
SUMMERVILLE    FAIR      72  46  40 NW7       30.00S
BEAUFORT MCAS  SUNNY     75  49  39 NW9       30.01R
BEAUFORT ARPT  FAIR      73  48  40 NW8       30.00R
HILTON HEAD IS SUNNY     77  50  38 N6        30.01R
WALTERBORO     CLEAR     72  46  40 NW12      30.01S
ALLENDALE      FAIR      73  48  40 VRB5      30.01R

...SOUTHERN MIDLANDS AND PEE DEE...

CITY           SKY/WX    TMP DP  RH WIND       PRES   REMARKS
GEORGETOWN     FAIR      70  46  43 NW9       29.99S
KINGSTREE      FAIR      70  45  40 W12       29.99R
ORANGEBURG     SUNNY     72  47  40 VRB5      30.01R
BARNWELL       FAIR      73  52  46 VRB5      30.02R
AIKEN          FAIR      70  46  43 NW5       30.06R
MANNING        FAIR      70  45  40 MISG      30.00R
COLUMBIA       MOSUNNY   72  48  42 W8        30.01R
SUMTER         SUNNY     71  47  42 N10       29.98S
FLORENCE       SUNNY     70  46  42 NW12G18   29.99S
MYRTLE BEACH   SUNNY     72  46  40 NW12      29.99R
N MYRTLE BEACH SUNNY     71  47  42 VRB7      29.96R

$$

GAZ063-065-086>088-099>101-113>116-118-119-134>141-150-192300-
...SOUTHEAST GEORGIA...

CITY           SKY/WX    TMP DP  RH WIND       PRES   REMARKS
SAVANNAH ARPT  MOSUNNY   76  47  35 NW12      30.01R
HUNTER AAF     SUNNY     75  54  48 NW7       29.99R
FORT STEWART   SUNNY     76  50  40 NW7       29.99S
STATESBORO     MOSUNNY   72  54  52 NW3       30.02R
SYLVANIA       CLEAR    N/A N/A N/A N3        30.03R
CLAXTON        FAIR      74  55  50 CALM      30.02S

...CSRA...CENTRAL AND FAR SOUTHEAST GEORGIA...

CITY           SKY/WX    TMP DP  RH WIND       PRES   REMARKS
THOMSON        SUNNY     74  53  46 CALM      30.07R
AUGUSTA-BUSH   SUNNY     75  48  38 N7        30.01R
AUGUSTA-DANIEL SUNNY     74  46  36 NW7       30.03R
SWAINSBORO     FAIR      73  50  43 NW5       30.03S
VIDALIA        PTSUNNY   73  55  53 N7        30.03R
EASTMAN        FAIR      75  34  22 NW3       30.07R
HAZLEHURST     FAIR      75  53  46 N6        30.02R
ALMA           PTSUNNY   76  52  43 W8        30.02R
WAYCROSS       CLOUDY    80  56  44 NW8       30.02S
JESUP          FAIR      77  50  38 W5        30.02R
BAXLEY         FAIR      75  55  50 NW7       30.02S
BRUNSWICK      MOSUNNY   75  55  50 W8        30.03R
SAINT SIMONS   MOSUNNY   68  59  73 SE8       30.02R

$$

SCZ027-028-034-036>038-045-046-048>050-GAZ119-141-192300-
...LAKE AND SUPPLEMENTAL COASTAL OBSERVATIONS...

STATION/POSITION TIME  TEMP    WIND        PRES    WAVE   SWELL
                       AIR SEA DIR/SP/G            HT/PER HT/PER/DIR
                 (UTC) (F)     (DEG/KT/KT) (MB)    (FT/S) (FT/S/D)
WINYAH BAY       2045   71     310/  9     1015.0
LAKE MURRAY      2120   65     190/  5/  6 1015.9
ACE BASIN NERRS  2045   75     300/  3     1015.0
FORT PULASKI     2148   73 61  310/ 12/ 14 1016.3R
SAPELO ISLAND    2100   77     300/  8     1016.0

$$

ANZ835-935-AMZ111-154-330-350-352-354-370-450-454-472-192300-
...C-MAN AND BUOY OBSERVATIONS...

STATION/POSITION TIME  TEMP    WIND        PRES    WAVE   SWELL
                       AIR SEA DIR/SP/G            HT/PER HT/PER/DIR
                 (UTC) (F)     (DEG/KT/KT) (MB)    (FT/S) (FT/S/D)
BUOY 41004       2150   66 69  250/ 12/ 14 1015.1R   2/ 6   2/160/ 6
BUOY 41008       2050   64 63  180/  8/ 10 1016.3    1
FOLLY BEACH CMAN 2100   73     330/  9/ 14 1016.0R
CAPERS NEARSHORE 2108   67 61  330/  8/ 12 1015.2S
FRIPP NEARSHORE  2108   69 60  320/  8/ 14 1015.5S


STATION/POSITION TIME  TEMP    WIND        PRES    WAVE   SWELL
                       AIR SEA DIR/SP/G            HT/PER HT/PER/DIR
                 (UTC) (F)     (DEG/KT/KT) (MB)    (FT/S) (FT/S/D)
5E ST. MARYS GA  2130      65                N/A     1/12
FRYING PAN BUOY  2150   64 64  260/ 12/ 16 1014.4R   3/ 6   2/170/ 6
BUOY 41025       2150   61 67  340/  8/ 12 1013.9R   2/ 7   2/150/ 7
CAPE LOOKOUT NC  2100   62     240/  9/ 12 1012.8R
BUOY 41002       2150   68 71  320/ 17/ 21 1012.5R   5/ 6   2/ 90/11
BUOY 41010       NOT AVBL
ST AUGUSTINE FL  2200   66 67  110/  9/  9 1018.0S


$$



USA.gov is the U.S. government's official web portal to all federal, state and local government web resources and services.